User: anonymous   Login
Location: Unspecified
(0.0000°N, 0.0000°E)
Time: 07:54:04
(UTC+00:00)
Language:

HUMSAT D - Orbit

View from above orbital plane
View from above orbital plane
View from above satellite
View from above satellite

Ground track
Ground track

The orbit data is extracted from the following two-line orbital elements,

1 39433U 13066T   24104.89114863  .00014215  00000-0  95748-3 0  9998
2 39433  97.4897  98.0544 0021810 139.3951 220.8908 15.06599292565060
Epoch (UTC): 13 April 2024 21:23:15
Eccentricity: 0.0021810
inclination: 97.4897°
perigee height: 531 km
apogee height: 562 km
right ascension of ascending node: 98.0544°
argument of perigee: 139.3951°
revolutions per day: 15.06599292
mean anomaly at epoch: 220.8908°
orbit number at epoch: 56506

The dashed part of the orbit path shows where the satellite is in the earth's shadow,  

DLR